Home > Weather > Provincetown > Past weeks

Flag for USA Past Weather in Provincetown, Massachusetts, USA — Yesterday and Last 2 Weeks

Now
68 °F

Passing clouds.


Feels Like: 68 °F
Forecast: 66 / 78 °F
Wind: 10 mph from Southwest

Location: Provincetown Weather Reporting Station

Current Time: Jul 1, 2016 at 6:04:07 AM

Latest Report: Jul 1, 2016 at 4:56 AM


Visibility: 10 mi

Pressure: 30.03 "Hg

Humidity: 84%

Dew Point: 63 °F

Location of ProvincetownLocation

Past Weather in Provincetown — Graph

°F

Provincetown Temperature Yesterday

Maximum temperature yesterday: 80 °F (at 3:56 PM)
Minimum temperature yesterday: 62 °F (at 5:56 AM)
Average temperature yesterday: 70 °F

High & Low Weather Summary for the Past Weeks

 TemperatureHumidityPressure
High81 °F (Jun 23, 2:56 PM)100% (Jun 24, 3:56 AM)30.35 "Hg (Jun 24, 3:56 AM)
Low47 °F (Jun 25, 3:56 AM)29% (Jun 23, 1:56 PM)29.70 "Hg (Jun 21, 4:56 PM)
Average67 °F72%30.02 "Hg
* Reported Jun 16 4:56 AM — Jul 1 4:56 AM, Provincetown, Weather by CustomWeather, © 2016

Note: Actual official high and low records may vary slightly from our data, if they occured in-between our weather recording intervals... More about our weather records

Advertising

Provincetown Weather History for the Previous 24 Hours

Scroll right to see more
 ConditionsComfort  
Time TempWeatherWind HumidityBarometerVisibility
4:56 AM
Fri, Jul 1
68 °FPassing clouds.10 mph84%30.03 "Hg10 mi
3:56 AM68 °FPartly cloudy.5 mph82%30.02 "Hg10 mi
2:56 AM69 °FPassing clouds.10 mph79%30.02 "Hg10 mi
1:56 AM68 °FOvercast.8 mph84%30.03 "Hg10 mi
12:56 AM68 °FPassing clouds.9 mph84%30.03 "Hg10 mi
11:56 PM
Thu, Jun 30
68 °FClear.13 mph84%30.03 "Hg10 mi
10:56 PM68 °FClear.8 mph90%30.03 "Hg10 mi
9:56 PM69 °FClear.9 mph84%30.03 "Hg10 mi
8:56 PM70 °FSunny.12 mph79%30.02 "Hg10 mi
7:56 PM72 °FSunny.10 mph68%30.01 "Hg10 mi
6:56 PM75 °FSunny.12 mph69%30.01 "Hg10 mi
5:56 PM78 °FSunny.9 mph54%29.99 "Hg10 mi
4:56 PM80 °FSunny.7 mph44%29.99 "Hg10 mi
3:56 PM80 °FSunny.5 mph45%29.98 "Hg10 mi
2:56 PM78 °FSunny.8 mph54%29.98 "Hg10 mi
1:56 PM73 °FSunny.8 mph69%29.98 "Hg10 mi
12:56 PM72 °FSunny.7 mph71%29.99 "Hg10 mi
11:56 AM72 °FSunny.7 mph71%29.98 "Hg10 mi
10:56 AM71 °FSunny.7 mph71%29.99 "Hg10 mi
9:56 AM70 °FSunny.6 mph73%29.98 "Hg10 mi
8:56 AM67 °FSunny.5 mph81%29.97 "Hg10 mi
7:56 AM64 °FPassing clouds.5 mph94%29.95 "Hg10 mi
6:56 AM62 °FFog.7 mph100%29.94 "Hg1 mi
Weather by CustomWeather, © 2016

See weather overviewHow to use our weather pages